This is the latest recevied weather packets stored in our database for station/object KC5DAQ-27. If no packets are shown the sender has not sent any weather packets the latest 10 day(s).
| Time | Temp. | Humidity | Pressure | Rain* | Wind** | Luminosity | Snow |
|---|---|---|---|---|---|---|---|
| 1778359085 | 32.78° C | 67% | 999.6 hPa | 0 mm | - | 981 W/m² | - |
| 1778359023 | 32.78° C | 67% | 999.6 hPa | 0 mm | - | 862 W/m² | - |
| 1778358963 | 32.78° C | 67% | 999.7 hPa | 0 mm | - | 297 W/m² | - |
| 1778358902 | 32.78° C | 67% | 999.7 hPa | 0 mm | - | 985 W/m² | - |
| 1778358844 | 32.78° C | 67% | 999.7 hPa | 0 mm | - | 981 W/m² | - |
| 1778358782 | 32.78° C | 68% | 999.7 hPa | 0 mm | - | 979 W/m² | - |
| 1778358722 | 32.78° C | 68% | 999.7 hPa | 0 mm | - | 983 W/m² | - |
| 1778358664 | 32.78° C | 69% | 999.8 hPa | 0 mm | - | 981 W/m² | - |
| 1778358604 | 32.78° C | 68% | 999.8 hPa | 0 mm | - | 990 W/m² | - |
| 1778358542 | 32.78° C | 68% | 999.8 hPa | 0 mm | - | 999 W/m² | - |
| 1778358483 | 32.78° C | 68% | 999.8 hPa | 0 mm | - | 999 W/m² | - |
| 1778358423 | 32.22° C | 68% | 999.7 hPa | 0 mm | - | 1000 W/m² | - |
| 1778358363 | 32.22° C | 68% | 999.8 hPa | 0 mm | - | 1000 W/m² | - |
| 1778358303 | 32.22° C | 69% | 999.8 hPa | 0 mm | - | 999 W/m² | - |
| 1778358243 | 32.22° C | 69% | 999.7 hPa | 0 mm | - | 1000 W/m² | - |
| 1778358183 | 32.22° C | 69% | 999.9 hPa | 0 mm | - | 997 W/m² | - |
| 1778358123 | 32.22° C | 70% | 999.8 hPa | 0 mm | - | 1002 W/m² | - |
| 1778358061 | 32.22° C | 69% | 999.8 hPa | 0 mm | - | 1008 W/m² | - |
| 1778358003 | 32.22° C | 69% | 999.8 hPa | 0 mm | - | 1013 W/m² | - |
| 1778357944 | 32.22° C | 70% | 999.9 hPa | 0 mm | - | 1020 W/m² | - |
| 1778357882 | 32.22° C | 70% | 999.8 hPa | 0 mm | - | 1016 W/m² | - |
| 1778357824 | 32.22° C | 70% | 999.8 hPa | 0 mm | - | 1013 W/m² | - |
| 1778357763 | 32.22° C | 70% | 999.7 hPa | 0 mm | - | 1027 W/m² | - |
| 1778357703 | 32.22° C | 71% | 999.8 hPa | 0 mm | - | 1023 W/m² | - |
| 1778357644 | 31.67° C | 72% | 999.8 hPa | 0 mm | - | 1020 W/m² | - |
* Rain latest hour (hover to see other rain measurements)
** Current wind speed in m/s (hover to see current wind gust speed)